Gillette, WY

2:29 PM MST on January 19, 2017 (GMT -0700)
Gillette-Campbell County

Weather History for KGCC - September, 2012

Change the Weather History Date:

Sunday, September 2, 2012

  Actual Average Record
Temperature  
Mean Temperature 68 °F 65 °F  
Max Temperature 85 °F 81 °F 96 °F (1940)
Min Temperature 50 °F 49 °F 34 °F (1974)
Degree Days  
Heating Degree Days 0 4  
Month to date heating degree days 0 7  
Since 1 July heating degree days 27 64  
Cooling Degree Days 3 3  
Month to date cooling degree days 17 6  
Year to date cooling degree days 773 466  
Growing Degree Days 18 (Base 50)    
Moisture  
Dew Point 38 °F    
Average Humidity 39    
Maximum Humidity 61    
Minimum Humidity 16    
Precipitation  
Precipitation 0.00 in 0.03 in 1.41 in (1973)
Month to date precipitation 0.00 0.07  
Year to date precipitation 7.57 10.55  
Sea Level Pressure  
Sea Level Pressure 29.91 in    
Wind  
Wind Speed 6 mph (WNW)    
Max Wind Speed 25 mph    
Max Gust Speed 29 mph    
Visibility 10 miles    
Events      
T = Trace of Precipitation, MM = Missing Value Source: NWS Daily Summary

Daily Weather History Graph

Daily Weather History Graph

Search for Another Location

Airport or City:

Trip Planner

Search our weather history database for the weather conditions in past years. The results will help you decide how hot, cold, wet, or windy it might be!

Date:

Astronomy

Sep. 02, 2012 Rise Set
Actual Time 6:26 AM MDT 7:35 PM MDT
Civil Twilight 5:56 AM MDT 8:05 PM MDT
Nautical Twilight 5:21 AM MDT 8:41 PM MDT
Astronomical Twilight 4:43 AM MDT 9:18 PM MDT
Moon 8:15 PM MDT (9/2) 8:45 AM MDT (9/2)
Length of Visible Light 14h 08m
Length of Day
13h 08m
Waning Gibbous, 95% of the Moon is Illuminated
Sep 2
Waning Gibbous
Sep 8
Last Quarter
Sep 15
New
Sep 22
First Quarter
Sep 29
Full

Hourly Weather History & Observations

Time (MDT) Temp. Dew Point Humidity Pressure Visibility Wind Dir Wind Speed Gust Speed Precip Events Conditions
12:53 AM 68.0 °F 42.1 °F 39% 29.81 in 10.0 mi NW 23.0 mph 29.9 mph N/A   Scattered Clouds
1:53 AM 64.4 °F 42.8 °F 45% 29.99 in 10.0 mi NNW 9.2 mph - N/A   Clear
2:53 AM 57.9 °F 41.0 °F 53% 29.86 in 10.0 mi Calm Calm - N/A   Clear
3:53 AM 57.0 °F 42.1 °F 57% 29.88 in 10.0 mi West 9.2 mph - N/A   Clear
4:53 AM 59.0 °F 43.0 °F 55% 29.88 in 10.0 mi West 11.5 mph - N/A   Clear
5:53 AM 57.0 °F 43.0 °F 59% 29.93 in 10.0 mi West 10.4 mph - N/A   Clear
6:53 AM 55.9 °F 43.0 °F 62% 29.95 in 10.0 mi WNW 8.1 mph - N/A   Clear
7:53 AM 64.9 °F 44.1 °F 47% 29.96 in 10.0 mi West 5.8 mph - N/A   Mostly Cloudy
8:53 AM 69.1 °F 44.1 °F 40% 29.95 in 10.0 mi SW 3.5 mph - N/A   Clear
9:53 AM 72.0 °F 43.0 °F 35% 29.97 in 10.0 mi Variable 4.6 mph - N/A   Clear
10:53 AM 75.0 °F 42.1 °F 31% 29.96 in 10.0 mi NW 6.9 mph - N/A   Clear
11:53 AM 77.0 °F 41.0 °F 28% 29.93 in 10.0 mi Variable 5.8 mph - N/A   Clear
12:53 PM 79.0 °F 39.9 °F 25% 29.91 in 10.0 mi NW 6.9 mph - N/A   Clear
1:53 PM 81.0 °F 37.9 °F 21% 29.90 in 10.0 mi West 10.4 mph 17.3 mph N/A   Partly Cloudy
2:53 PM 82.0 °F 32.0 °F 16% 29.90 in 10.0 mi West 6.9 mph - N/A   Clear
3:53 PM 81.0 °F 33.1 °F 18% 29.88 in 10.0 mi ENE 4.6 mph - N/A   Clear
4:53 PM 82.0 °F 33.1 °F 17% 29.86 in 10.0 mi ENE 8.1 mph - N/A   Scattered Clouds
5:53 PM 82.9 °F 32.0 °F 16% 29.86 in 10.0 mi ENE 5.8 mph - N/A   Clear
6:53 PM 79.0 °F 34.0 °F 20% 29.88 in 10.0 mi NNE 12.7 mph - N/A   Clear
7:53 PM 68.0 °F 34.0 °F 28% 29.89 in 10.0 mi North 3.5 mph - N/A   Clear
8:53 PM 59.0 °F 33.1 °F 38% 29.92 in 10.0 mi SE 4.6 mph - N/A   Clear
9:53 PM 59.0 °F 33.1 °F 38% 29.90 in 10.0 mi Calm Calm - N/A   Clear
10:53 PM 57.0 °F 33.1 °F 40% 29.91 in 10.0 mi WSW 3.5 mph - N/A   Clear
11:53 PM 53.1 °F 34.0 °F 48% 29.91 in 10.0 mi WSW 3.5 mph - N/A   Clear